Location: Newark
(52.3500°N, 175.9667°E)
Time: 20:37:16
(UTC+00:00)

S-56A Canister/Altair - Pass Details

Date: 10 December 2021
Orbit: 633 x 2499 km, 38.9° (Epoch: 19 January)

Event Time Altitude Azimuth Distance (km) Brightness Sun altitude
Rises 09:33:44 0° 217° (SW) 5,960 12.1 -48.3°
Reaches altitude 10° 09:38:45 10° 207° (SSW) 4,741 11.5 -49.0°
Enters shadow 09:39:02 11° 206° (SSW) 4,672 11.4 -49.0°
